Starlink 6369

operational
NORAD ID: 57374 Int'l Des: 2023-099 Owner: SPXS Country: US Constellation: starlink
LEOCIRCULAR

关于 Starlink 6369

正在加载描述...

实时位置

正在加载3D地球...

即将过境

高度历史

Altitude vs Time

uPlot chart will show altitude changes over time

两行轨道根数

1 57374U 23099AY 25354.23329859 -.00000508 00000-0 -22508-4 0 9995
2 57374 43.0052 294.7275 0001258 271.8845 88.1854 15.02542795134461
Epoch: Dec 20, 2025 • Age: 18 hours

当前状态

高度 561.3 km
速度 7.59 km/s
星下点 34.99°N, 22.86°W
发射日期 Jul 16, 2023
运行时间 2.4 years
类型 internet

技术详情

分类 Payload
质量 305.00 kg
干质量 290.00 kg
总质量 305.00 kg
长度 0.20 m
直径 2.80 m
跨度 9.00 m
形状 Box + pan
制造商 SPXS
平台类型 Starlink
阶段状态 In Orbit
所有者/国家 SPXS/US

大型星座

Loading constellations...